Year,Month,Day,Hour,Minute,Value (Times are PST for temperature in C)
2014,07,16,00,00,20.70
2014,07,16,00,01,20.70
2014,07,16,00,02,20.70
2014,07,16,00,03,20.70
2014,07,16,00,04,20.70
2014,07,16,00,05,20.60
2014,07,16,00,06,20.60
2014,07,16,00,07,20.60
2014,07,16,00,08,20.60
2014,07,16,00,09,20.60
2014,07,16,00,10,20.60
2014,07,16,00,11,20.60
2014,07,16,00,12,20.50
2014,07,16,00,13,20.50
2014,07,16,00,14,20.50
2014,07,16,00,15,20.50
2014,07,16,00,16,20.50
2014,07,16,00,17,20.60
2014,07,16,00,18,20.60
2014,07,16,00,19,20.70
2014,07,16,00,20,20.80
2014,07,16,00,21,20.90
2014,07,16,00,22,20.90
2014,07,16,00,23,21.00
2014,07,16,00,24,21.00
2014,07,16,00,25,20.90
2014,07,16,00,26,20.90
2014,07,16,00,27,20.90
2014,07,16,00,28,20.90
2014,07,16,00,29,20.80
2014,07,16,00,30,20.80
2014,07,16,00,31,20.80
2014,07,16,00,32,20.70
2014,07,16,00,33,20.70
2014,07,16,00,34,20.70
2014,07,16,00,35,20.70
2014,07,16,00,36,20.70
2014,07,16,00,37,20.70
2014,07,16,00,38,20.60
2014,07,16,00,39,20.60
2014,07,16,00,40,20.50
2014,07,16,00,41,20.50
2014,07,16,00,42,20.40
2014,07,16,00,43,20.30
2014,07,16,00,44,20.30
2014,07,16,00,45,20.20
2014,07,16,00,46,20.20
2014,07,16,00,47,20.20
2014,07,16,00,48,20.20
2014,07,16,00,49,20.20
2014,07,16,00,50,20.20
2014,07,16,00,51,20.20
2014,07,16,00,52,20.20
2014,07,16,00,53,20.20
2014,07,16,00,54,20.10
2014,07,16,00,55,20.00
2014,07,16,00,56,20.00
2014,07,16,00,57,19.90
2014,07,16,00,58,19.90
2014,07,16,00,59,20.00
2014,07,16,01,00,20.00
2014,07,16,01,01,20.00
2014,07,16,01,02,19.90
2014,07,16,01,03,19.90
2014,07,16,01,04,19.80
2014,07,16,01,05,19.80
2014,07,16,01,06,19.80
2014,07,16,01,07,19.80
2014,07,16,01,08,19.70
2014,07,16,01,09,19.70
2014,07,16,01,10,19.70
2014,07,16,01,11,19.70
2014,07,16,01,12,19.70
2014,07,16,01,13,19.80
2014,07,16,01,14,19.80
2014,07,16,01,15,19.80
2014,07,16,01,16,19.80
2014,07,16,01,17,19.80
2014,07,16,01,18,19.80
2014,07,16,01,19,19.80
2014,07,16,01,20,19.80
2014,07,16,01,21,19.80
2014,07,16,01,22,19.80
2014,07,16,01,23,19.80
2014,07,16,01,24,19.90
2014,07,16,01,25,19.90
2014,07,16,01,26,19.90
2014,07,16,01,27,19.90
2014,07,16,01,28,19.90
2014,07,16,01,29,19.90
2014,07,16,01,30,19.90
2014,07,16,01,31,19.80
2014,07,16,01,32,19.80
2014,07,16,01,33,19.80
2014,07,16,01,34,19.70
2014,07,16,01,35,19.60
2014,07,16,01,36,19.60
2014,07,16,01,37,19.50
2014,07,16,01,38,19.40
2014,07,16,01,39,19.30
2014,07,16,01,40,19.20
2014,07,16,01,41,19.10
2014,07,16,01,42,19.00
2014,07,16,01,43,18.90
2014,07,16,01,44,18.90
2014,07,16,01,45,18.80
2014,07,16,01,46,18.80
2014,07,16,01,47,18.70
2014,07,16,01,48,18.70
2014,07,16,01,49,18.60
2014,07,16,01,50,18.60
2014,07,16,01,51,18.60
2014,07,16,01,52,18.60
2014,07,16,01,53,18.60
2014,07,16,01,54,18.60
2014,07,16,01,55,18.60
2014,07,16,01,56,18.60
2014,07,16,01,57,18.50
2014,07,16,01,58,18.50
2014,07,16,01,59,18.60
2014,07,16,02,00,18.60
2014,07,16,02,01,18.70
2014,07,16,02,02,18.70
2014,07,16,02,03,18.70
2014,07,16,02,04,18.70
2014,07,16,02,05,18.70
2014,07,16,02,06,18.70
2014,07,16,02,07,18.70
2014,07,16,02,08,18.70
2014,07,16,02,09,18.60
2014,07,16,02,10,18.60
2014,07,16,02,11,18.60
2014,07,16,02,12,18.60
2014,07,16,02,13,18.50
2014,07,16,02,14,18.50
2014,07,16,02,15,18.50
2014,07,16,02,16,18.40
2014,07,16,02,17,18.40
2014,07,16,02,18,18.40
2014,07,16,02,19,18.50
2014,07,16,02,20,18.50
2014,07,16,02,21,18.50
2014,07,16,02,22,18.50
2014,07,16,02,23,18.50
2014,07,16,02,24,18.50
2014,07,16,02,25,18.50
2014,07,16,02,26,18.40
2014,07,16,02,27,18.40
2014,07,16,02,28,18.30
2014,07,16,02,29,18.30
2014,07,16,02,30,18.20
2014,07,16,02,31,18.10
2014,07,16,02,32,18.00
2014,07,16,02,33,17.90
2014,07,16,02,34,17.90
2014,07,16,02,35,17.80
2014,07,16,02,36,17.80
2014,07,16,02,37,17.80
2014,07,16,02,38,17.80
2014,07,16,02,39,17.70
2014,07,16,02,40,17.70
2014,07,16,02,41,17.70
2014,07,16,02,42,17.70
2014,07,16,02,43,17.70
2014,07,16,02,44,17.70
2014,07,16,02,45,17.70
2014,07,16,02,46,17.80
2014,07,16,02,47,17.80
2014,07,16,02,48,17.80
2014,07,16,02,49,17.70
2014,07,16,02,50,17.70
2014,07,16,02,51,17.70
2014,07,16,02,52,17.70
2014,07,16,02,53,17.70
2014,07,16,02,54,17.70
2014,07,16,02,55,17.70
2014,07,16,02,56,17.70
2014,07,16,02,57,17.70
2014,07,16,02,58,17.70
2014,07,16,02,59,17.70
2014,07,16,03,00,17.70
2014,07,16,03,01,17.70
2014,07,16,03,02,17.70
2014,07,16,03,03,17.70
2014,07,16,03,04,17.60
2014,07,16,03,05,17.60
2014,07,16,03,06,17.70
2014,07,16,03,07,17.70
2014,07,16,03,08,17.70
2014,07,16,03,09,17.70
2014,07,16,03,10,17.80
2014,07,16,03,11,17.80
2014,07,16,03,12,17.90
2014,07,16,03,13,17.90
2014,07,16,03,14,17.90
2014,07,16,03,15,17.90
2014,07,16,03,16,17.90
2014,07,16,03,17,17.90
2014,07,16,03,18,17.90
2014,07,16,03,19,17.90
2014,07,16,03,20,17.90
2014,07,16,03,21,17.90
2014,07,16,03,22,17.90
2014,07,16,03,23,17.90
2014,07,16,03,24,17.90
2014,07,16,03,25,17.90
2014,07,16,03,26,17.90
2014,07,16,03,27,17.90
2014,07,16,03,28,17.90
2014,07,16,03,29,17.80
2014,07,16,03,30,17.80
2014,07,16,03,31,17.80
2014,07,16,03,32,17.70
2014,07,16,03,33,17.70
2014,07,16,03,34,17.60
2014,07,16,03,35,17.60
2014,07,16,03,36,17.60
2014,07,16,03,37,17.50
2014,07,16,03,38,17.50
2014,07,16,03,39,17.50
2014,07,16,03,40,17.40
2014,07,16,03,41,17.40
2014,07,16,03,42,17.40
2014,07,16,03,43,17.40
2014,07,16,03,44,17.40
2014,07,16,03,45,17.40
2014,07,16,03,46,17.40
2014,07,16,03,47,17.40
2014,07,16,03,48,17.50
2014,07,16,03,49,17.60
2014,07,16,03,50,17.70
2014,07,16,03,51,17.70
2014,07,16,03,52,17.70
2014,07,16,03,53,17.70
2014,07,16,03,54,17.70
2014,07,16,03,55,17.70
2014,07,16,03,56,17.70
2014,07,16,03,57,17.70
2014,07,16,03,58,17.70
2014,07,16,03,59,17.70
2014,07,16,04,00,17.70
2014,07,16,04,01,17.70
2014,07,16,04,02,17.80
2014,07,16,04,03,17.90
2014,07,16,04,04,17.90
2014,07,16,04,05,17.90
2014,07,16,04,06,17.90
2014,07,16,04,07,17.90
2014,07,16,04,08,17.80
2014,07,16,04,09,17.70
2014,07,16,04,10,17.60
2014,07,16,04,11,17.60
2014,07,16,04,12,17.50
2014,07,16,04,13,17.50
2014,07,16,04,14,17.40
2014,07,16,04,15,17.30
2014,07,16,04,16,17.30
2014,07,16,04,17,17.30
2014,07,16,04,18,17.20
2014,07,16,04,19,17.20
2014,07,16,04,20,17.20
2014,07,16,04,21,17.20
2014,07,16,04,22,17.20
2014,07,16,04,23,17.30
2014,07,16,04,24,17.30
2014,07,16,04,25,17.30
2014,07,16,04,26,17.30
2014,07,16,04,27,17.30
2014,07,16,04,28,17.30
2014,07,16,04,29,17.30
2014,07,16,04,30,17.20
2014,07,16,04,31,17.20
2014,07,16,04,32,17.20
2014,07,16,04,33,17.20
2014,07,16,04,34,17.20
2014,07,16,04,35,17.30
2014,07,16,04,36,17.30
2014,07,16,04,37,17.40
2014,07,16,04,38,17.40
2014,07,16,04,39,17.50
2014,07,16,04,40,17.50
2014,07,16,04,41,17.60
2014,07,16,04,42,17.60
2014,07,16,04,43,17.60
2014,07,16,04,44,17.70
2014,07,16,04,45,17.70
2014,07,16,04,46,17.70
2014,07,16,04,47,17.80
2014,07,16,04,48,17.80
2014,07,16,04,49,17.70
2014,07,16,04,50,17.70
2014,07,16,04,51,17.60
2014,07,16,04,52,17.50
2014,07,16,04,53,17.50
2014,07,16,04,54,17.40
2014,07,16,04,55,17.30
2014,07,16,04,56,17.20
2014,07,16,04,57,17.10
2014,07,16,04,58,17.00
2014,07,16,04,59,17.00
2014,07,16,05,00,16.90
2014,07,16,05,01,16.80
2014,07,16,05,02,16.70
2014,07,16,05,03,16.70
2014,07,16,05,04,16.70
2014,07,16,05,05,16.70
2014,07,16,05,06,16.70
2014,07,16,05,07,16.70
2014,07,16,05,08,16.70
2014,07,16,05,09,16.70
2014,07,16,05,10,16.70
2014,07,16,05,11,16.70
2014,07,16,05,12,16.70
2014,07,16,05,13,16.70
2014,07,16,05,14,16.70
2014,07,16,05,15,16.80
2014,07,16,05,16,16.80
2014,07,16,05,17,16.80
2014,07,16,05,18,16.80
2014,07,16,05,19,16.90
2014,07,16,05,20,16.90
2014,07,16,05,21,17.00
2014,07,16,05,22,17.00
2014,07,16,05,23,17.00
2014,07,16,05,24,17.00
2014,07,16,05,25,16.90
2014,07,16,05,26,16.90
2014,07,16,05,27,16.80
2014,07,16,05,28,16.80
2014,07,16,05,29,16.80
2014,07,16,05,30,16.90
2014,07,16,05,31,17.00
2014,07,16,05,32,17.00
2014,07,16,05,33,17.10
2014,07,16,05,34,17.20
2014,07,16,05,35,17.20
2014,07,16,05,36,17.20
2014,07,16,05,37,17.20
2014,07,16,05,38,17.20
2014,07,16,05,39,17.10
2014,07,16,05,40,17.00
2014,07,16,05,41,16.90
2014,07,16,05,42,16.90
2014,07,16,05,43,16.80
2014,07,16,05,44,16.80
2014,07,16,05,45,16.80
2014,07,16,05,46,16.90
2014,07,16,05,47,16.90
2014,07,16,05,48,17.00
2014,07,16,05,49,17.10
2014,07,16,05,50,17.10
2014,07,16,05,51,17.20
2014,07,16,05,52,17.20
2014,07,16,05,53,17.30
2014,07,16,05,54,17.30
2014,07,16,05,55,17.20
2014,07,16,05,56,17.20
2014,07,16,05,57,17.10
2014,07,16,05,58,17.10
2014,07,16,05,59,17.00
2014,07,16,06,00,16.90
2014,07,16,06,01,16.90
2014,07,16,06,02,16.90
2014,07,16,06,03,16.90
2014,07,16,06,04,17.00
2014,07,16,06,05,17.20
2014,07,16,06,06,17.30
2014,07,16,06,07,17.40
2014,07,16,06,08,17.50
2014,07,16,06,09,17.60
2014,07,16,06,10,17.70
2014,07,16,06,11,17.80
2014,07,16,06,12,17.90
2014,07,16,06,13,17.90
2014,07,16,06,14,18.00
2014,07,16,06,15,18.10
2014,07,16,06,16,18.20
2014,07,16,06,17,18.20
2014,07,16,06,18,18.20
2014,07,16,06,19,18.20
2014,07,16,06,20,18.20
2014,07,16,06,21,18.10
2014,07,16,06,22,18.10
2014,07,16,06,23,18.10
2014,07,16,06,24,18.10
2014,07,16,06,25,18.00
2014,07,16,06,26,18.00
2014,07,16,06,27,18.00
2014,07,16,06,28,17.90
2014,07,16,06,29,17.90
2014,07,16,06,30,17.90
2014,07,16,06,31,17.90
2014,07,16,06,32,17.90
2014,07,16,06,33,17.90
2014,07,16,06,34,17.90
2014,07,16,06,35,17.80
2014,07,16,06,36,17.80
2014,07,16,06,37,17.80
2014,07,16,06,38,17.80
2014,07,16,06,39,17.70
2014,07,16,06,40,17.70
2014,07,16,06,41,17.70
2014,07,16,06,42,17.80
2014,07,16,06,43,17.80
2014,07,16,06,44,17.80
2014,07,16,06,45,17.90
2014,07,16,06,46,17.90
2014,07,16,06,47,18.00
2014,07,16,06,48,18.10
2014,07,16,06,49,18.20
2014,07,16,06,50,18.20
2014,07,16,06,51,18.30
2014,07,16,06,52,18.40
2014,07,16,06,53,18.40
2014,07,16,06,54,18.50
2014,07,16,06,55,18.50
2014,07,16,06,56,18.50
2014,07,16,06,57,18.50
2014,07,16,06,58,18.60
2014,07,16,06,59,18.60
2014,07,16,07,00,18.60
2014,07,16,07,01,18.60
2014,07,16,07,02,18.70
2014,07,16,07,03,18.80
2014,07,16,07,04,18.90
2014,07,16,07,05,19.00
2014,07,16,07,06,19.10
2014,07,16,07,07,19.20
2014,07,16,07,08,19.30
2014,07,16,07,09,19.50
2014,07,16,07,10,19.60
2014,07,16,07,11,19.70
2014,07,16,07,12,19.80
2014,07,16,07,13,19.90
2014,07,16,07,14,20.00
2014,07,16,07,15,20.10
2014,07,16,07,16,20.20
2014,07,16,07,17,20.30
2014,07,16,07,18,20.50
2014,07,16,07,19,20.60
2014,07,16,07,20,20.70
2014,07,16,07,21,20.80
2014,07,16,07,22,20.90
2014,07,16,07,23,21.00
2014,07,16,07,24,21.10
2014,07,16,07,25,21.10
2014,07,16,07,26,21.20
2014,07,16,07,27,21.20
2014,07,16,07,28,21.30
2014,07,16,07,29,21.30
2014,07,16,07,30,21.30
2014,07,16,07,31,21.40
2014,07,16,07,32,21.40
2014,07,16,07,33,21.50
2014,07,16,07,34,21.50
2014,07,16,07,35,21.60
2014,07,16,07,36,21.60
2014,07,16,07,37,21.60
2014,07,16,07,38,21.70
2014,07,16,07,39,21.70
2014,07,16,07,40,21.70
2014,07,16,07,41,21.80
2014,07,16,07,42,21.80
2014,07,16,07,43,21.80
2014,07,16,07,44,21.80
2014,07,16,07,45,21.80
2014,07,16,07,46,21.80
2014,07,16,07,47,21.80
2014,07,16,07,48,21.90
2014,07,16,07,49,21.90
2014,07,16,07,50,22.00
2014,07,16,07,51,22.10
2014,07,16,07,52,22.20
2014,07,16,07,53,22.20
2014,07,16,07,54,22.30
2014,07,16,07,55,22.30
2014,07,16,07,56,22.30
2014,07,16,07,57,22.30
2014,07,16,07,58,22.30
2014,07,16,07,59,22.30
2014,07,16,08,00,22.30
2014,07,16,08,01,22.30
2014,07,16,08,02,22.30
2014,07,16,08,03,22.30
2014,07,16,08,04,22.30
2014,07,16,08,05,22.40
2014,07,16,08,06,22.40
2014,07,16,08,07,22.40
2014,07,16,08,08,22.40
2014,07,16,08,09,22.40
2014,07,16,08,10,22.40
2014,07,16,08,11,22.40
2014,07,16,08,12,22.40
2014,07,16,08,13,22.50
2014,07,16,08,14,22.50
2014,07,16,08,15,22.50
2014,07,16,08,16,22.50
2014,07,16,08,17,22.60
2014,07,16,08,18,22.60
2014,07,16,08,19,22.70
2014,07,16,08,20,22.80
2014,07,16,08,21,22.80
2014,07,16,08,22,22.90
2014,07,16,08,23,23.00
2014,07,16,08,24,23.00
2014,07,16,08,25,23.10
2014,07,16,08,26,23.20
2014,07,16,08,27,23.30
2014,07,16,08,28,23.40
2014,07,16,08,29,23.50
2014,07,16,08,30,23.50
2014,07,16,08,31,23.60
2014,07,16,08,32,23.70
2014,07,16,08,33,23.80
2014,07,16,08,34,23.90
2014,07,16,08,35,23.90
2014,07,16,08,36,23.90
2014,07,16,08,37,23.90
2014,07,16,08,38,23.90
2014,07,16,08,39,23.90
2014,07,16,08,40,24.00
2014,07,16,08,41,24.00
2014,07,16,08,42,24.10
2014,07,16,08,43,24.10
2014,07,16,08,44,24.20
2014,07,16,08,45,24.30
2014,07,16,08,46,24.40
2014,07,16,08,47,24.40
2014,07,16,08,48,24.50
2014,07,16,08,49,24.60
2014,07,16,08,50,24.60
2014,07,16,08,51,24.70
2014,07,16,08,52,24.70
2014,07,16,08,53,24.70
2014,07,16,08,54,24.70
2014,07,16,08,55,24.80
2014,07,16,08,56,24.80
2014,07,16,08,57,24.80
2014,07,16,08,58,24.80
2014,07,16,08,59,24.90
2014,07,16,09,00,24.90
2014,07,16,09,01,25.00
2014,07,16,09,02,25.00
2014,07,16,09,03,25.00
2014,07,16,09,04,25.00
2014,07,16,09,05,25.10
2014,07,16,09,06,25.10
2014,07,16,09,07,25.10
2014,07,16,09,08,25.10
2014,07,16,09,09,24.90
2014,07,16,09,10,24.70
2014,07,16,09,11,24.60
2014,07,16,09,12,24.60
2014,07,16,09,13,24.50
2014,07,16,09,14,24.30
2014,07,16,09,15,24.00
2014,07,16,09,16,23.70
2014,07,16,09,17,23.50
2014,07,16,09,18,23.30
2014,07,16,09,19,23.30
2014,07,16,09,20,23.40
2014,07,16,09,21,23.40
2014,07,16,09,22,23.50
2014,07,16,09,23,23.60
2014,07,16,09,24,23.60
2014,07,16,09,25,23.80
2014,07,16,09,26,23.80
2014,07,16,09,27,23.80
2014,07,16,09,28,23.70
2014,07,16,09,29,23.80
2014,07,16,09,30,23.70
2014,07,16,09,31,23.70
2014,07,16,09,32,23.60
2014,07,16,09,33,23.50
2014,07,16,09,34,23.50
2014,07,16,09,35,23.40
2014,07,16,09,36,23.50
2014,07,16,09,37,23.60
2014,07,16,09,38,23.60
2014,07,16,09,39,23.60
2014,07,16,09,40,23.70
2014,07,16,09,41,23.80
2014,07,16,09,42,23.90
2014,07,16,09,43,24.00
2014,07,16,09,44,24.10
2014,07,16,09,45,24.00
2014,07,16,09,46,23.90
2014,07,16,09,47,24.00
2014,07,16,09,48,24.00
2014,07,16,09,49,24.10
2014,07,16,09,50,24.20
2014,07,16,09,51,24.30
2014,07,16,09,52,24.30
2014,07,16,09,53,24.30
2014,07,16,09,54,24.30
2014,07,16,09,55,24.30
2014,07,16,09,56,24.20
2014,07,16,09,57,24.10
2014,07,16,09,58,24.10
2014,07,16,09,59,24.10
2014,07,16,10,00,24.10
2014,07,16,10,01,24.20
2014,07,16,10,02,24.30
2014,07,16,10,03,24.30
2014,07,16,10,04,24.50
2014,07,16,10,05,24.60
2014,07,16,10,06,24.80
2014,07,16,10,07,24.90
2014,07,16,10,08,24.90
2014,07,16,10,09,25.00
2014,07,16,10,10,25.00
2014,07,16,10,11,25.00
2014,07,16,10,12,25.10
2014,07,16,10,13,25.10
2014,07,16,10,14,25.20
2014,07,16,10,15,25.30
2014,07,16,10,16,25.30
2014,07,16,10,17,25.20
2014,07,16,10,18,25.20
2014,07,16,10,19,25.30
2014,07,16,10,20,25.30
2014,07,16,10,21,25.40
2014,07,16,10,22,25.50
2014,07,16,10,23,25.60
2014,07,16,10,24,25.70
2014,07,16,10,25,25.70
2014,07,16,10,26,25.70
2014,07,16,10,27,25.80
2014,07,16,10,28,25.90
2014,07,16,10,29,25.90
2014,07,16,10,30,26.00
2014,07,16,10,31,26.00
2014,07,16,10,32,25.90
2014,07,16,10,33,25.80
2014,07,16,10,34,25.80
2014,07,16,10,35,25.80
2014,07,16,10,36,25.80
2014,07,16,10,37,25.80
2014,07,16,10,38,25.80
2014,07,16,10,39,25.80
2014,07,16,10,40,25.80
2014,07,16,10,41,25.70
2014,07,16,10,42,25.70
2014,07,16,10,43,25.70
2014,07,16,10,44,25.70
2014,07,16,10,45,25.80
2014,07,16,10,46,25.90
2014,07,16,10,47,25.90
2014,07,16,10,48,25.90
2014,07,16,10,49,26.00
2014,07,16,10,50,26.10
2014,07,16,10,51,26.10
2014,07,16,10,52,26.20
2014,07,16,10,53,26.20
2014,07,16,10,54,26.20
2014,07,16,10,55,26.30
2014,07,16,10,56,26.40
2014,07,16,10,57,26.40
2014,07,16,10,58,26.40
2014,07,16,10,59,26.50
2014,07,16,11,00,26.50
2014,07,16,11,01,26.40
2014,07,16,11,02,26.30
2014,07,16,11,03,26.10
2014,07,16,11,04,26.00
2014,07,16,11,05,26.00
2014,07,16,11,06,26.10
2014,07,16,11,07,26.10
2014,07,16,11,08,26.10
2014,07,16,11,09,26.10
2014,07,16,11,10,26.00
2014,07,16,11,11,25.90
2014,07,16,11,12,25.90
2014,07,16,11,13,25.80
2014,07,16,11,14,25.60
2014,07,16,11,15,25.50
2014,07,16,11,16,25.60
2014,07,16,11,17,25.70
2014,07,16,11,18,25.70
2014,07,16,11,19,25.80
2014,07,16,11,20,25.90
2014,07,16,11,21,26.00
2014,07,16,11,22,26.10
2014,07,16,11,23,26.10
2014,07,16,11,24,26.20
2014,07,16,11,25,26.20
2014,07,16,11,26,26.20
2014,07,16,11,27,26.20
2014,07,16,11,28,26.10
2014,07,16,11,29,25.90
2014,07,16,11,30,25.80
2014,07,16,11,31,25.80
2014,07,16,11,32,25.90
2014,07,16,11,33,26.10
2014,07,16,11,34,26.10
2014,07,16,11,35,26.10
2014,07,16,11,36,25.90
2014,07,16,11,37,25.80
2014,07,16,11,38,25.80
2014,07,16,11,39,25.80
2014,07,16,11,40,25.90
2014,07,16,11,41,25.70
2014,07,16,11,42,25.50
2014,07,16,11,43,25.30
2014,07,16,11,44,25.30
2014,07,16,11,45,25.30
2014,07,16,11,46,25.30
2014,07,16,11,47,25.40
2014,07,16,11,48,25.40
2014,07,16,11,49,25.30
2014,07,16,11,50,25.20
2014,07,16,11,51,25.20
2014,07,16,11,52,25.20
2014,07,16,11,53,25.20
2014,07,16,11,54,25.20
2014,07,16,11,55,25.30
2014,07,16,11,56,25.30
2014,07,16,11,57,25.40
2014,07,16,11,58,25.50
2014,07,16,11,59,25.60
2014,07,16,12,00,25.50
2014,07,16,12,01,25.40
2014,07,16,12,02,25.40
2014,07,16,12,03,25.40
2014,07,16,12,04,25.50
2014,07,16,12,05,25.50
2014,07,16,12,06,25.30
2014,07,16,12,07,25.30
2014,07,16,12,08,25.20
2014,07,16,12,09,25.20
2014,07,16,12,10,25.20
2014,07,16,12,11,25.30
2014,07,16,12,12,25.30
2014,07,16,12,13,25.30
2014,07,16,12,14,25.20
2014,07,16,12,15,25.20
2014,07,16,12,16,25.10
2014,07,16,12,17,25.10
2014,07,16,12,18,25.10
2014,07,16,12,19,25.20
2014,07,16,12,20,25.20
2014,07,16,12,21,25.20
2014,07,16,12,22,25.10
2014,07,16,12,23,25.10
2014,07,16,12,24,25.10
2014,07,16,12,25,25.10
2014,07,16,12,26,25.10
2014,07,16,12,27,25.00
2014,07,16,12,28,25.10
2014,07,16,12,29,25.20
2014,07,16,12,30,25.30
2014,07,16,12,31,25.40
2014,07,16,12,32,25.60
2014,07,16,12,33,25.70
2014,07,16,12,34,25.80
2014,07,16,12,35,25.70
2014,07,16,12,36,25.70
2014,07,16,12,37,25.70
2014,07,16,12,38,25.80
2014,07,16,12,39,25.90
2014,07,16,12,40,25.90
2014,07,16,12,41,25.90
2014,07,16,12,42,25.90
2014,07,16,12,43,26.00
2014,07,16,12,44,26.00
2014,07,16,12,45,25.90
2014,07,16,12,46,25.80
2014,07,16,12,47,25.50
2014,07,16,12,48,25.30
2014,07,16,12,49,25.10
2014,07,16,12,50,24.90
2014,07,16,12,51,24.90
2014,07,16,12,52,25.00
2014,07,16,12,53,25.00
2014,07,16,12,54,25.00
2014,07,16,12,55,25.00
2014,07,16,12,56,25.00
2014,07,16,12,57,25.10
2014,07,16,12,58,25.20
2014,07,16,12,59,25.30
2014,07,16,13,00,25.40
2014,07,16,13,01,25.30
2014,07,16,13,02,25.20
2014,07,16,13,03,25.20
2014,07,16,13,04,25.20
2014,07,16,13,05,25.40
2014,07,16,13,06,25.40
2014,07,16,13,07,25.30
2014,07,16,13,08,25.40
2014,07,16,13,09,25.40
2014,07,16,13,10,25.50
2014,07,16,13,11,25.60
2014,07,16,13,12,25.70
2014,07,16,13,13,25.80
2014,07,16,13,14,25.80
2014,07,16,13,15,25.80
2014,07,16,13,16,25.80
2014,07,16,13,17,25.90
2014,07,16,13,18,26.00
2014,07,16,13,19,26.00
2014,07,16,13,20,26.00
2014,07,16,13,21,26.00
2014,07,16,13,22,26.10
2014,07,16,13,23,26.10
2014,07,16,13,24,26.20
2014,07,16,13,25,26.20
2014,07,16,13,26,26.20
2014,07,16,13,27,26.20
2014,07,16,13,28,26.30
2014,07,16,13,29,26.20
2014,07,16,13,30,26.10
2014,07,16,13,31,26.10
2014,07,16,13,32,26.10
2014,07,16,13,33,26.00
2014,07,16,13,34,26.10
2014,07,16,13,35,26.20
2014,07,16,13,36,26.20
2014,07,16,13,37,26.20
2014,07,16,13,38,26.20
2014,07,16,13,39,26.20
2014,07,16,13,40,26.20
2014,07,16,13,41,26.20
2014,07,16,13,42,26.20
2014,07,16,13,43,26.20
2014,07,16,13,44,26.30
2014,07,16,13,45,26.40
2014,07,16,13,46,26.40
2014,07,16,13,47,26.40
2014,07,16,13,48,26.30
2014,07,16,13,49,26.30
2014,07,16,13,50,26.30
2014,07,16,13,51,26.30
2014,07,16,13,52,26.30
2014,07,16,13,53,26.40
2014,07,16,13,54,26.50
2014,07,16,13,55,26.70
2014,07,16,13,56,26.70
2014,07,16,13,57,26.70
2014,07,16,13,58,26.60
2014,07,16,13,59,26.60
2014,07,16,14,00,26.50
2014,07,16,14,01,26.50
2014,07,16,14,02,26.60
2014,07,16,14,03,26.80
2014,07,16,14,04,26.80
2014,07,16,14,05,26.80
2014,07,16,14,06,26.80
2014,07,16,14,07,26.70
2014,07,16,14,08,26.60
2014,07,16,14,09,26.60
2014,07,16,14,10,26.60
2014,07,16,14,11,26.60
2014,07,16,14,12,26.60
2014,07,16,14,13,26.60
2014,07,16,14,14,26.60
2014,07,16,14,15,26.70
2014,07,16,14,16,26.80
2014,07,16,14,17,26.80
2014,07,16,14,18,26.90
2014,07,16,14,19,26.90
2014,07,16,14,20,27.00
2014,07,16,14,21,27.00
2014,07,16,14,22,26.90
2014,07,16,14,23,26.90
2014,07,16,14,24,26.80
2014,07,16,14,25,26.80
2014,07,16,14,26,26.80
2014,07,16,14,27,26.80
2014,07,16,14,28,26.80
2014,07,16,14,29,26.80
2014,07,16,14,30,26.90
2014,07,16,14,31,26.90
2014,07,16,14,32,26.90
2014,07,16,14,33,26.90
2014,07,16,14,34,26.80
2014,07,16,14,35,26.80
2014,07,16,14,36,26.80
2014,07,16,14,37,26.90
2014,07,16,14,38,27.10
2014,07,16,14,39,27.10
2014,07,16,14,40,27.20
2014,07,16,14,41,27.20
2014,07,16,14,42,27.30
2014,07,16,14,43,27.40
2014,07,16,14,44,27.50
2014,07,16,14,45,27.60
2014,07,16,14,46,27.60
2014,07,16,14,47,27.60
2014,07,16,14,48,27.50
2014,07,16,14,49,27.50
2014,07,16,14,50,27.50
2014,07,16,14,51,27.40
2014,07,16,14,52,27.50
2014,07,16,14,53,27.50
2014,07,16,14,54,27.50
2014,07,16,14,55,27.60
2014,07,16,14,56,27.50
2014,07,16,14,57,27.40
2014,07,16,14,58,27.30
2014,07,16,14,59,27.20
2014,07,16,15,00,27.20
2014,07,16,15,01,27.30
2014,07,16,15,02,27.30
2014,07,16,15,03,27.40
2014,07,16,15,04,27.40
2014,07,16,15,05,27.40
2014,07,16,15,06,27.40
2014,07,16,15,07,27.50
2014,07,16,15,08,27.50
2014,07,16,15,09,27.60
2014,07,16,15,10,27.60
2014,07,16,15,11,27.60
2014,07,16,15,12,27.60
2014,07,16,15,13,27.60
2014,07,16,15,14,27.70
2014,07,16,15,15,27.70
2014,07,16,15,16,27.70
2014,07,16,15,17,27.60
2014,07,16,15,18,27.60
2014,07,16,15,19,27.60
2014,07,16,15,20,27.60
2014,07,16,15,21,27.50
2014,07,16,15,22,27.50
2014,07,16,15,23,27.50
2014,07,16,15,24,27.40
2014,07,16,15,25,27.40
2014,07,16,15,26,27.40
2014,07,16,15,27,27.40
2014,07,16,15,28,27.40
2014,07,16,15,29,27.30
2014,07,16,15,30,27.30
2014,07,16,15,31,27.30
2014,07,16,15,32,27.50
2014,07,16,15,33,27.60
2014,07,16,15,34,27.70
2014,07,16,15,35,27.70
2014,07,16,15,36,27.80
2014,07,16,15,37,27.90
2014,07,16,15,38,27.90
2014,07,16,15,39,27.80
2014,07,16,15,40,27.80
2014,07,16,15,41,27.80
2014,07,16,15,42,27.80
2014,07,16,15,43,27.80
2014,07,16,15,44,27.80
2014,07,16,15,45,27.70
2014,07,16,15,46,27.60
2014,07,16,15,47,27.60
2014,07,16,15,48,27.60
2014,07,16,15,49,27.60
2014,07,16,15,50,27.60
2014,07,16,15,51,27.70
2014,07,16,15,52,27.70
2014,07,16,15,53,27.80
2014,07,16,15,54,27.80
2014,07,16,15,55,27.90
2014,07,16,15,56,27.90
2014,07,16,15,57,27.90
2014,07,16,15,58,27.90
2014,07,16,15,59,27.90
2014,07,16,16,00,27.80
2014,07,16,16,01,27.70
2014,07,16,16,02,27.70
2014,07,16,16,03,27.70
2014,07,16,16,04,27.90
2014,07,16,16,05,28.00
2014,07,16,16,06,28.10
2014,07,16,16,07,28.10
2014,07,16,16,08,28.20
2014,07,16,16,09,28.30
2014,07,16,16,10,28.30
2014,07,16,16,11,28.40
2014,07,16,16,12,28.40
2014,07,16,16,13,28.30
2014,07,16,16,14,28.20
2014,07,16,16,15,28.20
2014,07,16,16,16,28.30
2014,07,16,16,17,28.30
2014,07,16,16,18,28.40
2014,07,16,16,19,28.50
2014,07,16,16,20,28.70
2014,07,16,16,21,28.70
2014,07,16,16,22,28.70
2014,07,16,16,23,28.70
2014,07,16,16,24,28.70
2014,07,16,16,25,28.70
2014,07,16,16,26,28.80
2014,07,16,16,27,28.80
2014,07,16,16,28,28.90
2014,07,16,16,29,28.80
2014,07,16,16,30,28.70
2014,07,16,16,31,28.60
2014,07,16,16,32,28.50
2014,07,16,16,33,28.40
2014,07,16,16,34,28.40
2014,07,16,16,35,28.40
2014,07,16,16,36,28.40
2014,07,16,16,37,28.40
2014,07,16,16,38,28.30
2014,07,16,16,39,28.20
2014,07,16,16,40,28.20
2014,07,16,16,41,28.20
2014,07,16,16,42,28.20
2014,07,16,16,43,28.10
2014,07,16,16,44,28.10
2014,07,16,16,45,28.00
2014,07,16,16,46,27.90
2014,07,16,16,47,27.90
2014,07,16,16,48,28.00
2014,07,16,16,49,27.90
2014,07,16,16,50,27.90
2014,07,16,16,51,27.90
2014,07,16,16,52,27.90
2014,07,16,16,53,27.80
2014,07,16,16,54,27.80
2014,07,16,16,55,27.90
2014,07,16,16,56,27.90
2014,07,16,16,57,28.00
2014,07,16,16,58,28.00
2014,07,16,16,59,28.10
2014,07,16,17,00,28.10
2014,07,16,17,01,28.10
2014,07,16,17,02,28.20
2014,07,16,17,03,28.20
2014,07,16,17,04,28.10
2014,07,16,17,05,28.10
2014,07,16,17,06,28.10
2014,07,16,17,07,28.20
2014,07,16,17,08,28.20
2014,07,16,17,09,28.20
2014,07,16,17,10,28.10
2014,07,16,17,11,28.00
2014,07,16,17,12,28.00
2014,07,16,17,13,28.00
2014,07,16,17,14,27.90
2014,07,16,17,15,27.90
2014,07,16,17,16,27.90
2014,07,16,17,17,27.90
2014,07,16,17,18,27.80
2014,07,16,17,19,28.00